EW1476 Weather Reports


Display with metric or nautical units.
time (UTC)temp
F
wind
direction
speed
MPH
gust
MPH
rain 1hr
in
rain 24hr
in
rain mn
in
humidity
%
barometer
mb
20260502163008 51 304 1.0 4.0 0.00 0.00 0.00 47 1014.5
20260502161526 52 312 1.0 3.0 0.00 0.00 0.00 49 1014.3
20260502151509 49 309 1.0 2.0 0.00 0.00 0.00 60 1015.0
20260502123017 45 338 1.0 3.0 0.00 0.00 0.00 71 1014.7
20260502121516 44 319 0.0 3.0 0.00 0.00 0.00 72 1014.8
20260502114510 44 313 2.0 4.0 0.00 0.00 0.00 74 1014.5
20260502113009 44 323 1.0 4.0 0.00 0.00 0.00 75 1014.4
20260502111506 44 333 0.0 5.0 0.00 0.00 0.00 75 1014.5
20260502110021 44 317 2.0 5.0 0.00 0.00 0.00 75 1014.2
20260502104526 45 309 2.0 4.0 0.00 0.00 0.00 74 1014.0
20260502103017 45 322 2.0 4.0 0.00 0.00 0.00 73 1014.0
20260502101512 45 323 1.0 3.0 0.00 0.00 0.00 72 1013.7
20260502091521 47 278 1.0 5.0 0.00 0.00 0.00 69 1013.3
20260502071518 50 330 2.0 5.0 0.00 0.00 0.00 72 1013.0
20260502070026 50 317 2.0 3.0 0.00 0.00 0.00 75 1013.0
20260502064528 50 317 0.0 1.0 0.00 0.00 0.00 76 1012.9
20260502063031 50 321 1.0 2.0 0.00 0.00 0.00 77 1012.9
20260502061524 50 321 0.0 1.0 0.00 0.00 0.00 77 1013.2
20260502060034 50 321 0.0 2.0 0.00 0.00 0.00 77 1013.5
20260502054533 50 321 1.0 2.0 0.00 0.00 0.00 79 1013.4
20260502053014 50 321 0.0 0.0 0.00 0.00 0.00 82 1013.3
20260502051512 51 321 0.0 0.0 0.00 0.00 0.00 82 1013.5
20260502050015 51 321 0.0 0.0 0.00 0.00 0.00 80 1013.4
20260502044505 51 321 0.0 0.0 0.00 0.00 0.00 80 1013.3
20260502043024 51 321 0.0 0.0 0.00 0.00 0.00 78 1013.0
20260502041543 51 321 0.0 2.0 0.00 0.00 0.00 79 1013.1
20260502040042 51 323 0.0 0.0 0.00 0.00 0.00 81 1013.1
20260502034516 52 323 0.0 1.0 0.00 0.00 0.00 78 1013.2
20260502033024 52 323 0.0 2.0 0.00 0.00 0.00 77 1013.0
20260502031508 52 314 0.0 0.0 0.00 0.00 0.00 77 1012.9
20260502030026 53 314 0.0 0.0 0.00 0.00 0.00 71 1012.5
20260502024521 53 314 0.0 0.0 0.00 0.00 0.00 70 1012.4
20260502023030 55 148 0.0 0.0 0.00 0.00 0.00 67 1012.5
20260502021518 55 148 0.0 0.0 0.00 0.00 0.00 61 1012.5
20260502020016 56 148 0.0 0.0 0.00 0.00 0.00 63 1012.4
20260502014511 56 148 0.0 0.0 0.00 0.00 0.00 58 1012.1
20260502013028 57 148 0.0 1.0 0.00 0.00 0.00 57 1011.5
20260502011524 58 220 0.0 0.0 0.00 0.00 0.00 54 1011.4
20260502010025 58 220 0.0 0.0 0.00 0.00 0.00 48 1011.3
20260502004520 58 220 0.0 0.0 0.00 0.00 0.00 49 1011.2
20260502003017 58 221 0.0 0.0 0.00 0.00 0.00 49 1011.3
20260502001537 59 150 0.0 1.0 0.00 0.00 0.00 50 1011.2
20260502000047 59 150 0.0 0.0 0.00 0.00 0.00 50 1010.9
20260501234508 59 198 0.0 0.0 0.00 0.00 0.00 50 1010.6
20260501233004 60 198 0.0 0.0 0.00 0.00 0.00 49 1010.4
20260501231504 60 198 0.0 0.0 0.00 0.00 0.00 47 1010.4
20260501230031 60 198 0.0 0.0 0.00 0.00 0.00 47 1010.6
20260501224514 60 198 0.0 0.0 0.00 0.00 0.00 48 1010.7
20260501223015 61 198 0.0 1.0 0.00 0.00 0.00 45 1010.7
20260501221508 61 227 0.0 2.0 0.00 0.00 0.00 43 1010.7
20260501220004 62 186 0.0 2.0 0.00 0.00 0.00 43 1010.5
20260501214522 62 162 0.0 2.0 0.00 0.00 0.00 42 1010.8
20260501213026 63 136 1.0 2.0 0.00 0.00 0.00 41 1010.8
20260501211516 62 157 0.0 2.0 0.00 0.00 0.00 46 1010.9
20260501210014 63 142 1.0 2.0 0.00 0.00 0.00 42 1011.0
20260501204510 63 228 1.0 4.0 0.00 0.00 0.00 40 1010.9
20260501203019 63 159 1.0 3.0 0.00 0.00 0.00 41 1011.1
20260501201523 63 236 1.0 2.0 0.00 0.00 0.00 41 1011.2
20260501200022 63 141 1.0 3.0 0.00 0.00 0.00 43 1011.3
20260501194520 63 146 1.0 5.0 0.00 0.00 0.00 40 1011.7
20260501193013 63 159 0.0 3.0 0.00 0.00 0.00 45 1011.8
20260501191513 62 235 1.0 3.0 0.00 0.00 0.00 41 1012.1
20260501190009 62 229 0.0 3.0 0.00 0.00 0.00 41 1012.3
20260501184528 62 255 1.0 3.0 0.00 0.00 0.00 40 1012.5
20260501183024 62 141 0.0 2.0 0.00 0.00 0.00 44 1012.7
20260501181520 60 206 0.0 3.0 0.00 0.00 0.00 44 1013.1
20260501180017 60 155 2.0 5.0 0.00 0.00 0.00 43 1013.2
20260501174512 60 274 0.0 3.0 0.00 0.00 0.00 43 1013.4
20260501173006 59 243 1.0 3.0 0.00 0.00 0.00 45 1013.6
20260501171505 59 241 0.0 4.0 0.00 0.00 0.00 45 1013.5